Home > Weather > Paterson > Past weeks

Flag for USA Past Weather in Paterson, New Jersey, USA — Yesterday and Last 2 Weeks

Now
73 °F

Mostly cloudy.


Feels Like: 72 °F
Forecast: 66 / 84 °F
Wind: 3 mph from Southeast

Location: Essex County Airport

Current Time: Jun 28, 2016 at 10:07:56 PM

Latest Report: Jun 28, 2016 at 8:53 PM


Visibility: 8 mi

Pressure: 29.89 "Hg

Humidity: 84%

Dew Point: 68 °F

Location of PatersonLocation

Past Weather in Paterson — Graph

°F

Paterson Temperature Yesterday

Maximum temperature yesterday: 85 °F (at 1:53 PM)
Minimum temperature yesterday: 63 °F (at 4:53 AM)
Average temperature yesterday: 74 °F

High & Low Weather Summary for the Past Weeks

 TemperatureHumidityPressure
High89 °F (Jun 19, 1:53 PM)93% (Jun 16, 5:53 AM)30.32 "Hg (Jun 16, 5:53 AM)
Low53 °F (Jun 18, 5:53 AM)22% (Jun 15, 12:53 PM)29.75 "Hg (Jun 16, 6:53 PM)
Average72 °F57%30.01 "Hg
* Reported Jun 13 8:53 PM — Jun 28 8:53 PM, Paterson, Weather by CustomWeather, © 2016

Note: Actual official high and low records may vary slightly from our data, if they occured in-between our weather recording intervals... More about our weather records

Advertising

Paterson Weather History for the Previous 24 Hours

Scroll right to see more
 ConditionsComfort  
Time TempWeatherWind HumidityBarometerVisibility
8:53 PM
Tue, Jun 28
73 °FMostly cloudy.3 mph84%29.89 "Hg8 mi
7:53 PM73 °FMostly cloudy.5 mph84%29.87 "Hg8 mi
6:53 PM74 °FBroken clouds.3 mph82%29.89 "Hg10 mi
5:53 PM76 °FScattered clouds.7 mph77%29.89 "Hg10 mi
5:00 PM78 °FOvercast.8 mph71%29.88 "Hg10 mi
3:53 PM75 °FLow clouds.6 mph82%29.90 "Hg8 mi
2:53 PM73 °FLow clouds.8 mph84%29.93 "Hg6 mi
1:53 PM73 °FFog.7 mph88%29.95 "Hg4 mi
8:53 AM72 °FOvercast.8 mph84%29.98 "Hg9 mi
7:53 AM71 °FOvercast.No wind87%29.98 "Hg10 mi
6:53 AM70 °FOvercast.No wind87%29.98 "Hg8 mi
5:53 AM71 °FOvercast.3 mph84%29.98 "Hg10 mi
4:52 AM71 °FMostly cloudy.5 mph87%29.97 "Hg10 mi
3:53 AM71 °FOvercast.No wind87%29.97 "Hg10 mi
2:53 AM71 °FOvercast.No wind87%29.98 "Hg10 mi
1:53 AM71 °FOvercast.No wind87%29.99 "Hg10 mi
12:53 AM71 °FOvercast.No wind90%30.00 "Hg10 mi
11:53 PM
Mon, Jun 27
70 °FLight rain. Mostly cloudy.3 mph90%30.01 "Hg8 mi
10:53 PM70 °FLight rain. Fog.No wind90%30.02 "Hg6 mi
Weather by CustomWeather, © 2016

See weather overviewHow to use our weather pages